Date String (YYYY-MM-DD hh:mm:ss) UTC,Instrument flags,Ambient pressure (hPa),Sample flow (lpm),Bypass flow (lpm),Sample temperature (°C),Ambient temperature (°C),ASC tube jacket temperature (°C),LED temperature (°C),Box temperature (°C),Sample RH (%),Span deviation,Mass concentration (μg/m³),Mass concentration (μg/m³),Mass concentration (μg/m³)
DateTimeUTC,F1_M11,P_M11,Q1_M11,Q2_M11,T1_M11,T2_M11,T3_M11,T4_M11,T5_M11,U1_M11,ZSPAN_M11,X2_M11,X0_M11,X1_M11
2023-01-22 07:00:00,,0821.7,5.00,0.00,22.5,22.4,00.0,31.1,24.4,09.3,0000.0,0004.00,0005.82,0003.81
2023-01-22 07:01:00,,0821.6,5.00,0.00,22.6,23.1,00.0,31.2,24.6,09.3,0000.0,0004.01,0005.91,0003.80
2023-01-22 07:02:00,,0821.6,4.99,0.00,22.7,22.9,00.0,31.2,24.7,09.3,0000.0,0004.01,0006.21,0003.79
2023-01-22 07:03:00,,0821.6,5.01,0.00,22.7,22.4,00.0,31.3,24.6,09.3,0000.0,0004.03,0007.46,0003.79
2023-01-22 07:04:00,,0821.7,5.00,0.00,22.7,22.1,00.0,31.3,24.5,09.3,0000.0,0004.03,0007.45,0003.79
2023-01-22 07:05:00,,0821.7,5.01,0.00,22.7,21.8,00.0,31.3,24.5,09.3,0000.0,0004.07,0007.51,0003.81
2023-01-22 07:06:00,,0821.6,5.00,0.00,22.7,21.6,00.0,31.3,24.4,09.3,0000.0,0004.13,0007.58,0003.85
2023-01-22 07:07:00,,0821.7,4.99,0.00,22.6,21.4,00.0,31.3,24.4,09.4,0000.0,0004.17,0007.67,0003.88
2023-01-22 07:08:00,,0821.6,5.00,0.00,22.6,21.3,00.0,31.3,24.4,09.5,0000.0,0004.23,0007.74,0003.93
2023-01-22 07:09:00,,0821.6,5.04,0.00,22.6,21.2,00.0,31.3,24.3,09.5,0000.0,0004.27,0008.20,0003.96
2023-01-22 07:10:00,,0821.6,4.99,0.00,22.6,21.1,00.0,31.3,24.3,09.5,0000.0,0004.34,0008.25,0004.01
2023-01-22 07:11:00,,0821.6,4.99,0.00,22.6,21.1,00.0,31.3,24.3,09.5,0000.0,0004.38,0008.30,0004.04
2023-01-22 07:12:00,,0821.6,5.00,0.00,22.5,21.1,00.0,31.3,24.3,09.5,0000.0,0004.40,0008.30,0004.07
2023-01-22 07:13:00,,0821.6,5.01,0.00,22.5,21.1,00.0,31.3,24.2,09.5,0000.0,0004.46,0008.27,0004.11
2023-01-22 07:14:00,,0821.5,5.00,0.00,22.5,21.1,00.0,31.3,24.2,09.5,0000.0,0004.50,0007.67,0004.15
2023-01-22 07:15:00,,0821.6,5.01,0.00,22.5,21.0,00.0,31.3,24.2,09.5,0000.0,0004.53,0007.68,0004.19
2023-01-22 07:16:00,,0821.6,5.00,0.00,22.5,21.0,00.0,31.3,24.2,09.5,0000.0,0004.56,0007.72,0004.22
2023-01-22 07:17:00,,0821.6,5.00,0.00,22.5,21.0,00.0,31.3,24.1,09.5,0000.0,0004.54,0007.68,0004.23
2023-01-22 07:18:00,,0821.5,4.99,0.00,22.4,20.9,00.0,31.3,24.1,09.5,0000.0,0004.54,0007.65,0004.24
2023-01-22 07:19:00,,0821.5,4.98,0.00,22.4,20.9,00.0,31.3,24.1,09.5,0000.0,0004.54,0007.65,0004.23
2023-01-22 07:20:00,,0821.5,5.01,0.00,22.4,20.8,00.0,31.3,24.1,09.6,0000.0,0004.52,0007.10,0004.23
2023-01-22 07:21:00,,0821.5,5.01,0.00,22.4,20.8,00.0,31.3,24.0,09.5,0000.0,0004.48,0006.93,0004.23
2023-01-22 07:22:00,,0821.6,5.00,0.00,22.3,20.8,00.0,31.2,24.0,09.5,0000.0,0004.47,0006.90,0004.22
2023-01-22 07:23:00,,0821.5,5.01,0.00,22.4,21.3,00.0,31.2,24.1,09.5,0000.0,0004.44,0006.80,0004.20
2023-01-22 07:24:00,,0821.6,5.00,0.00,22.5,22.2,00.0,31.2,24.4,09.4,0000.0,0004.39,0006.73,0004.18
2023-01-22 07:25:00,,0821.6,5.01,0.00,22.6,22.9,00.0,31.2,24.6,09.3,0000.0,0004.34,0006.61,0004.14
2023-01-22 07:26:00,,0821.6,4.98,0.00,22.6,22.7,00.0,31.3,24.6,09.3,0000.0,0004.33,0006.74,0004.11
2023-01-22 07:27:00,,0821.6,5.01,0.00,22.6,22.2,00.0,31.3,24.5,09.2,0000.0,0004.30,0006.78,0004.06
2023-01-22 07:28:00,,0821.6,5.00,0.00,22.6,21.8,00.0,31.3,24.4,09.2,0000.0,0004.26,0006.75,0004.02
2023-01-22 07:29:00,,0821.6,4.99,0.00,22.6,21.5,00.0,31.3,24.4,09.3,0000.0,0004.22,0006.67,0003.98
2023-01-22 07:30:00,,0821.6,5.01,0.00,22.6,21.3,00.0,31.3,24.3,09.3,0000.0,0004.15,0006.49,0003.93
2023-01-22 07:31:00,,0821.6,5.00,0.00,22.6,21.2,00.0,31.3,24.2,09.3,0000.0,0004.11,0006.42,0003.89
2023-01-22 07:32:00,,0821.6,4.99,0.00,22.5,21.1,00.0,31.3,24.2,09.4,0000.0,0004.10,0006.40,0003.86
2023-01-22 07:33:00,,0821.6,4.98,0.00,22.5,21.0,00.0,31.3,24.2,09.3,0000.0,0004.08,0006.39,0003.83
2023-01-22 07:34:00,,0821.6,5.01,0.00,22.5,20.9,00.0,31.3,24.1,09.1,0000.0,0004.06,0006.60,0003.79
2023-01-22 07:35:00,,0821.6,4.99,0.00,22.5,20.8,00.0,31.3,24.1,09.1,0000.0,0004.00,0006.63,0003.74
2023-01-22 07:36:00,,0821.5,4.98,0.00,22.4,20.7,00.0,31.3,24.1,09.1,0000.0,0003.95,0006.40,0003.70
2023-01-22 07:37:00,,0821.6,5.01,0.00,22.4,20.7,00.0,31.3,24.0,09.1,0000.0,0003.90,0006.24,0003.66
2023-01-22 07:38:00,,0821.6,5.00,0.00,22.4,20.6,00.0,31.2,24.0,09.1,0000.0,0003.86,0006.78,0003.63
2023-01-22 07:39:00,,0821.7,4.99,0.00,22.3,20.6,00.0,31.2,24.0,09.1,0000.0,0003.81,0006.82,0003.58
2023-01-22 07:40:00,,0821.7,5.02,0.00,22.3,20.6,00.0,31.2,23.9,09.2,0000.0,0003.79,0006.84,0003.54
2023-01-22 07:41:00,,0821.6,5.00,0.00,22.3,20.6,00.0,31.2,23.9,09.1,0000.0,0003.76,0006.90,0003.50
2023-01-22 07:42:00,,0821.6,5.00,0.00,22.3,20.6,00.0,31.2,23.9,09.1,0000.0,0003.71,0006.76,0003.45
2023-01-22 07:43:00,,0821.5,4.99,0.00,22.2,20.5,00.0,31.1,23.9,09.1,0000.0,0003.65,0006.65,0003.41
2023-01-22 07:44:00,,0821.6,5.02,0.00,22.2,20.5,00.0,31.1,23.8,09.1,0000.0,0003.57,0006.92,0003.34
2023-01-22 07:45:00,,0821.6,5.00,0.00,22.2,20.7,00.0,31.1,23.9,09.1,0000.0,0003.52,0006.66,0003.31
2023-01-22 07:46:00,,0821.6,4.99,0.00,22.3,21.7,00.0,31.1,24.1,09.0,0000.0,0003.51,0006.99,0003.27
2023-01-22 07:47:00,,0821.5,5.00,0.00,22.4,22.4,00.0,31.1,24.3,09.0,0000.0,0003.50,0007.08,0003.24
2023-01-22 07:48:00,,0821.5,4.99,0.00,22.4,22.3,00.0,31.1,24.4,09.0,0000.0,0003.47,0006.94,0003.21
2023-01-22 07:49:00,,0821.5,4.99,0.00,22.5,22.0,00.0,31.1,24.3,09.0,0000.0,0003.42,0006.13,0003.18
2023-01-22 07:50:00,,0821.4,5.01,0.00,22.5,21.7,00.0,31.2,24.3,08.9,0000.0,0003.40,0005.89,0003.16
2023-01-22 07:51:00,,0821.4,5.01,0.00,22.5,21.5,00.0,31.2,24.3,08.9,0000.0,0003.36,0005.75,0003.13
2023-01-22 07:52:00,,0821.4,4.99,0.00,22.5,21.4,00.0,31.2,24.2,08.9,0000.0,0003.33,0005.57,0003.11
2023-01-22 07:53:00,,0821.4,5.04,0.00,22.5,21.3,00.0,31.2,24.2,08.9,0000.0,0003.32,0005.64,0003.09
2023-01-22 07:54:00,,0821.4,5.01,0.00,22.4,21.2,00.0,31.2,24.2,08.9,0000.0,0003.29,0005.63,0003.04
2023-01-22 07:55:00,,0821.4,4.99,0.00,22.4,21.2,00.0,31.2,24.2,08.9,0000.0,0003.28,0005.31,0003.02
2023-01-22 07:56:00,,0821.4,5.00,0.00,22.4,21.2,00.0,31.2,24.2,08.9,0000.0,0003.27,0005.01,0002.99
2023-01-22 07:57:00,,0821.4,5.00,0.00,22.4,21.1,00.0,31.2,24.2,08.9,0000.0,0003.23,0004.77,0002.96
2023-01-22 07:58:00,,0821.4,5.01,0.00,22.4,21.2,00.0,31.2,24.1,08.9,0000.0,0003.22,0005.00,0002.94
2023-01-22 07:59:00,,0821.4,5.01,0.00,22.4,21.1,00.0,31.2,24.2,08.9,0000.0,0003.16,0005.19,0002.90
